W0WC Weather Reports


Display with metric or nautical units.
time (UTC)temp
F
wind
direction
speed
MPH
gust
MPH
rain 1hr
in
rain 24hr
in
rain mn
in
humidity
%
barometer
mb
20260505062800 63 275 5.0 7.0 0.35 0.15 0.15 90 1008.0
20260505062258 63 196 7.0 9.0 0.24 0.12 0.12 88 1008.3
20260505061754 63 259 4.0 6.0 0.19 0.09 0.09 87 1007.7
20260505061252 64 266 4.0 4.0 0.31 0.08 0.08 85 1007.0
20260505060750 64 171 5.0 6.0 0.31 0.06 0.06 82 1006.8
20260505060247 66 293 3.0 3.0 0.17 0.03 0.03 79 1006.6
20260505055742 67 125 8.0 9.0 0.05 0.01 0.01 76 1006.2
20260505055238 67 200 9.0 10.0 0.05 0.01 0.01 72 1006.0
20260505054736 68 129 6.0 9.0 0.00 0.00 0.00 69 1005.4
20260505054234 69 192 5.0 6.0 0.00 0.00 0.00 68 1005.4
20260505053732 69 171 6.0 8.0 0.00 0.00 0.00 66 1005.5
20260505053228 69 167 3.0 4.0 0.00 0.00 0.00 65 1005.5
20260505052725 69 148 3.0 4.0 0.00 0.00 0.00 64 1005.2
20260505052222 69 89 2.0 2.0 0.00 0.00 0.00 64 1005.2
20260505051719 69 176 3.0 4.0 0.00 0.00 0.00 64 1005.4
20260505051217 69 170 2.0 2.0 0.00 0.00 0.00 64 1005.4
20260505050715 69 84 4.0 7.0 0.00 0.00 0.00 65 1005.5
20260505050213 69 143 6.0 8.0 0.00 0.00 0.00 65 1005.5
20260505041648 69 172 5.0 6.0 0.00 0.00 0.00 65 1005.5
20260505041146 69 176 4.0 6.0 0.00 0.00 0.00 65 1005.3
20260505040643 69 138 3.0 4.0 0.00 0.00 0.00 65 1005.5
20260505040140 69 108 2.0 2.0 0.00 0.00 0.00 65 1005.3
20260505035636 69 108 4.0 4.0 0.00 0.00 0.00 64 1005.5
20260505035132 69 152 2.0 2.0 0.00 0.00 0.00 64 1005.9
20260505034629 69 84 2.0 2.0 0.00 0.00 0.00 64 1006.2
20260505034126 70 228 6.0 8.0 0.00 0.00 0.00 64 1006.2
20260505033622 70 117 4.0 4.0 0.00 0.00 0.00 63 1006.1
20260505033121 70 189 7.0 9.0 0.00 0.00 0.00 63 1005.9
20260505032619 70 218 4.0 4.0 0.00 0.00 0.00 63 1006.0
20260505032115 70 166 5.0 7.0 0.00 0.00 0.00 63 1006.0
20260505031612 70 310 3.0 4.0 0.00 0.00 0.00 63 1006.0
20260505031108 70 191 5.0 8.0 0.00 0.00 0.00 62 1005.9
20260505030605 71 117 2.0 2.0 0.00 0.00 0.00 62 1005.7
20260505025557 71 255 3.0 3.0 0.00 0.00 0.00 61 1005.9
20260505025056 71 90 4.0 6.0 0.00 0.00 0.00 61 1005.9
20260505024553 71 73 2.0 2.0 0.00 0.00 0.00 60 1005.8
20260505024050 71 50 1.0 1.0 0.00 0.00 0.00 60 1005.9
20260505023547 71 132 5.0 7.0 0.00 0.00 0.00 59 1005.9
20260505023045 71 197 5.0 8.0 0.00 0.00 0.00 59 1005.7
20260505022542 72 113 2.0 2.0 0.00 0.00 0.00 59 1005.7
20260505022039 72 108 6.0 8.0 0.00 0.00 0.00 58 1005.9
20260505021536 72 142 4.0 6.0 0.00 0.00 0.00 58 1005.8
20260505021033 72 129 4.0 4.0 0.00 0.00 0.00 58 1005.7
20260505020532 72 118 4.0 6.0 0.00 0.00 0.00 58 1005.9
20260505020030 72 139 3.0 3.0 0.00 0.00 0.00 58 1005.6
20260505015527 72 146 4.0 4.0 0.00 0.00 0.00 57 1005.5
20260505015023 72 200 3.0 4.0 0.00 0.00 0.00 58 1005.5
20260505014520 72 167 4.0 6.0 0.00 0.00 0.00 57 1005.5
20260505014018 72 102 4.0 6.0 0.00 0.00 0.00 57 1005.5
20260505013515 72 172 4.0 4.0 0.00 0.00 0.00 57 1005.6
20260505013012 73 183 3.0 4.0 0.00 0.00 0.00 58 1005.6
20260505012510 73 163 5.0 7.0 0.00 0.00 0.00 57 1005.4
20260505012007 73 179 4.0 4.0 0.00 0.00 0.00 57 1005.2
20260505011502 73 44 1.0 1.0 0.00 0.00 0.00 57 1005.4
20260505011000 73 176 3.0 4.0 0.00 0.00 0.00 56 1005.5
20260505010455 73 146 4.0 6.0 0.00 0.00 0.00 55 1005.6
20260505005951 74 227 6.0 8.0 0.00 0.00 0.00 55 1005.5
20260505005448 74 124 6.0 7.0 0.00 0.00 0.00 54 1005.4
20260505004946 74 225 5.0 7.0 0.00 0.00 0.00 54 1005.4
20260505004442 74 161 4.0 4.0 0.00 0.00 0.00 54 1005.1
20260505003939 74 71 3.0 4.0 0.00 0.00 0.00 54 1005.1
20260505003436 75 204 5.0 7.0 0.00 0.00 0.00 54 1005.1
20260505002932 75 217 7.0 10.0 0.00 0.00 0.00 53 1005.1
20260505002429 75 202 7.0 10.0 0.00 0.00 0.00 53 1005.4
20260505001927 75 202 8.0 10.0 0.00 0.00 0.00 52 1005.2
20260505001425 75 228 9.0 11.0 0.00 0.00 0.00 52 1005.3
20260505000922 76 205 4.0 4.0 0.00 0.00 0.00 52 1005.2
20260505000420 76 182 5.0 6.0 0.00 0.00 0.00 51 1004.8
20260504235916 76 263 6.0 8.0 0.00 0.00 0.00 51 1004.9
20260504235414 76 238 5.0 7.0 0.00 0.00 0.00 50 1005.0
20260504234909 76 170 7.0 10.0 0.00 0.00 0.00 50 1005.0
20260504234407 77 228 11.0 14.0 0.00 0.00 0.00 50 1004.8
20260504233903 77 230 5.0 6.0 0.00 0.00 0.00 50 1004.8
20260504233359 77 155 5.0 7.0 0.00 0.00 0.00 50 1004.9
20260504232856 77 127 4.0 6.0 0.00 0.00 0.00 50 1004.8
20260504232353 77 248 4.0 6.0 0.00 0.00 0.00 49 1004.8
20260504231850 78 38 6.0 8.0 0.00 0.00 0.00 48 1005.0
20260504231346 78 136 7.0 9.0 0.00 0.00 0.00 47 1004.9
20260504230843 78 203 11.0 14.0 0.00 0.00 0.00 47 1005.1
20260504230340 78 258 8.0 10.0 0.00 0.00 0.00 47 1005.1
20260504225839 79 206 8.0 11.0 0.00 0.00 0.00 47 1004.9
20260504225335 79 73 5.0 7.0 0.00 0.00 0.00 47 1005.0
20260504224833 79 166 6.0 8.0 0.00 0.00 0.00 47 1004.9
20260504224329 79 132 4.0 6.0 0.00 0.00 0.00 47 1004.7
20260504223826 79 242 6.0 9.0 0.00 0.00 0.00 47 1004.7
20260504223321 80 131 8.0 13.0 0.00 0.00 0.00 47 1004.6
20260504222818 80 130 5.0 7.0 0.00 0.00 0.00 47 1004.6
20260504222315 80 235 2.0 3.0 0.00 0.00 0.00 48 1004.5
20260504221814 80 231 5.0 7.0 0.00 0.00 0.00 46 1004.8
20260504221310 80 192 9.0 13.0 0.00 0.00 0.00 46 1004.7
20260504220807 80 284 9.0 14.0 0.00 0.00 0.00 47 1004.6
20260504220304 81 212 10.0 15.0 0.00 0.00 0.00 46 1004.7
20260504215801 81 213 5.0 9.0 0.00 0.00 0.00 45 1004.5
20260504215257 82 197 6.0 8.0 0.00 0.00 0.00 45 1004.9
20260504214753 82 229 4.0 6.0 0.00 0.00 0.00 44 1004.9
20260504214250 82 208 2.0 4.0 0.00 0.00 0.00 44 1004.9
20260504213747 82 193 6.0 7.0 0.00 0.00 0.00 44 1004.9
20260504213243 82 156 7.0 11.0 0.00 0.00 0.00 44 1004.9
20260504212740 81 350 9.0 11.0 0.00 0.00 0.00 43 1004.7
20260504212237 81 254 2.0 4.0 0.00 0.00 0.00 44 1004.9
20260504211734 81 141 5.0 6.0 0.00 0.00 0.00 44 1004.9
20260504211230 81 215 4.0 6.0 0.00 0.00 0.00 44 1005.0
20260504210728 81 223 10.0 17.0 0.00 0.00 0.00 43 1004.9
20260504210225 82 172 10.0 16.0 0.00 0.00 0.00 43 1005.0
20260504205722 82 190 7.0 8.0 0.00 0.00 0.00 43 1005.2
20260504205220 81 195 6.0 8.0 0.00 0.00 0.00 45 1005.2
20260504204718 81 183 10.0 13.0 0.00 0.00 0.00 44 1005.4
20260504204216 82 165 13.0 18.0 0.00 0.00 0.00 43 1005.4
20260504203715 82 197 5.0 8.0 0.00 0.00 0.00 44 1005.3
20260504203212 82 211 9.0 10.0 0.00 0.00 0.00 44 1005.5
20260504202712 81 181 9.0 11.0 0.00 0.00 0.00 44 1005.6
20260504202209 81 197 5.0 8.0 0.00 0.00 0.00 44 1005.6
20260504201706 82 181 4.0 8.0 0.00 0.00 0.00 45 1005.4
20260504201203 81 189 8.0 10.0 0.00 0.00 0.00 45 1005.5
20260504200701 80 191 10.0 16.0 0.00 0.00 0.00 45 1005.9
20260504200152 81 215 9.0 13.0 0.00 0.00 0.00 44 1005.7
20260504195648 82 177 13.0 18.0 0.00 0.00 0.00 43 1005.7
20260504195144 81 207 3.0 6.0 0.00 0.00 0.00 46 1005.8
20260504194641 82 181 10.0 13.0 0.00 0.00 0.00 43 1006.0
20260504194137 81 286 3.0 3.0 0.00 0.00 0.00 45 1006.0
20260504193634 81 180 9.0 13.0 0.00 0.00 0.00 44 1006.1
20260504193132 80 70 4.0 8.0 0.00 0.00 0.00 46 1006.1
20260504192629 81 196 9.0 13.0 0.00 0.00 0.00 45 1006.2
20260504192127 80 227 4.0 6.0 0.00 0.00 0.00 45 1006.5
20260504191626 81 183 9.0 13.0 0.00 0.00 0.00 44 1006.5
20260504191121 81 2 1.0 2.0 0.00 0.00 0.00 48 1006.5
20260504190618 80 168 4.0 7.0 0.00 0.00 0.00 45 1006.5
20260504190115 80 148 10.0 15.0 0.00 0.00 0.00 45 1006.3
20260504185611 79 178 6.0 9.0 0.00 0.00 0.00 45 1006.4
20260504185108 80 224 13.0 22.0 0.00 0.00 0.00 44 1006.5
20260504184603 79 136 5.0 8.0 0.00 0.00 0.00 45 1006.3
20260504184058 79 158 6.0 10.0 0.00 0.00 0.00 45 1006.3
20260504183556 79 249 10.0 15.0 0.00 0.00 0.00 44 1006.4
20260504183054 79 256 9.0 15.0 0.00 0.00 0.00 45 1006.2
20260504182550 78 180 9.0 13.0 0.00 0.00 0.00 47 1006.1
20260504182048 78 249 9.0 11.0 0.00 0.00 0.00 46 1006.2
20260504181545 78 179 12.0 17.0 0.00 0.00 0.00 45 1006.4
20260504181043 79 249 9.0 11.0 0.00 0.00 0.00 45 1006.4
20260504180542 79 210 10.0 16.0 0.00 0.00 0.00 45 1006.4
20260504180040 79 264 11.0 15.0 0.00 0.00 0.00 45 1006.5
20260504175537 79 218 4.0 7.0 0.00 0.00 0.00 45 1006.7
20260504175034 78 239 6.0 11.0 0.00 0.00 0.00 46 1006.6
20260504174532 78 202 13.0 15.0 0.00 0.00 0.00 45 1006.6
20260504174028 78 218 12.0 15.0 0.00 0.00 0.00 45 1006.5
20260504173525 78 211 14.0 16.0 0.00 0.00 0.00 45 1006.6
20260504173023 78 194 6.0 8.0 0.00 0.00 0.00 46 1006.7
20260504172519 77 214 9.0 16.0 0.00 0.00 0.00 47 1006.7
20260504172015 77 211 7.0 13.0 0.00 0.00 0.00 47 1006.7
20260504171512 77 213 9.0 14.0 0.00 0.00 0.00 47 1006.7
20260504171009 77 163 9.0 19.0 0.00 0.00 0.00 47 1006.6
20260504170505 77 228 7.0 10.0 0.00 0.00 0.00 47 1006.7
20260504160425 75 206 11.0 17.0 0.00 0.00 0.00 48 1007.2
20260504150848 72 156 9.0 13.0 0.00 0.00 0.00 50 1007.3
20260504150345 72 183 7.0 9.0 0.00 0.00 0.00 51 1007.7
20260504141315 69 237 3.0 6.0 0.00 0.00 0.00 52 1008.2
20260504140812 69 207 11.0 14.0 0.00 0.00 0.00 52 1008.2
20260504140308 69 188 4.0 8.0 0.00 0.00 0.00 52 1008.5
20260504130737 66 187 6.0 9.0 0.00 0.00 0.00 55 1008.7
20260504130232 66 169 5.0 7.0 0.00 0.00 0.00 55 1008.6
20260504120156 64 194 4.0 7.0 0.00 0.00 0.00 58 1008.9
20260504110624 64 203 4.0 6.0 0.00 0.00 0.00 56 1009.0
20260504110120 64 165 6.0 8.0 0.00 0.00 0.00 56 1009.2
20260504100545 65 90 3.0 4.0 0.00 0.00 0.00 53 1009.2
20260504081939 67 179 5.0 8.0 0.00 0.00 0.00 49 1009.7
20260504081436 67 235 5.0 9.0 0.00 0.00 0.00 49 1009.7
20260504080932 68 180 5.0 6.0 0.00 0.00 0.00 48 1009.7
20260504080429 68 229 6.0 8.0 0.00 0.00 0.00 48 1009.7
20260504070356 68 213 3.0 4.0 0.00 0.00 0.00 48 1010.3